Hourly Data Report for November 05, 2019

All times are specified in Local Standard Time (LST). Add 1 hour to adjust for Daylight Saving Time where and when it is observed.

WOODSTOCK NEWBRIDGE
NEW BRUNSWICK
Current Station Operator: ECCC - MSC

46°09'08.000" N
67°32'34.000" W
154.00 m
8105603
71606
EWD

Download Data

Hourly Data (November 2019)
Hourly Data Report for November 5, 2019
TIME Temp Definition
°C
Dew Point Definition
°C
Rel Hum Definition
%
Wind Dir Definition
10's deg

Wind Spd Definition
km/h
Visibility Definition
km
Stn Press Definition
kPa
Hmdx Definition


Wind Chill Definition


Weather Definition


00:00 0.0 -3.5 77 12 6   100.86   -2 LegendNANA
01:00 1.9 -2.2 74 11 6   100.86     LegendNANA
02:00 2.6 -2.1 71 14 6   100.87     LegendNANA
03:00 3.0 -0.5 78 14 9   100.82     LegendNANA
04:00 3.6 0.3 79 12 7   100.77     LegendNANA
05:00 3.4 0.0 78 12 12   100.74     LegendNANA
06:00 3.7 0.4 79 12 10   100.73     LegendNANA
07:00 4.8 1.8 81 13 9   100.69     LegendNANA
08:00 5.8 2.5 80 13 9   100.72     LegendNANA
09:00 7.3 3.4 76 15 8   100.72     LegendNANA
10:00 7.9 4.1 77 15 12   100.68     LegendNANA
11:00 8.7 4.8 77 15 11   LegendMM     LegendNANA
12:00 10.0 5.4 73 15 16   100.55     LegendNANA
13:00 10.0 5.5 74 15 16   100.49     LegendNANA
14:00 8.4 6.9 91 16 15   100.45     LegendNANA
15:00 8.0 7.2 95 13 10   100.37     LegendNANA
16:00 8.2 7.6 96 13 12   100.28     LegendNANA
17:00 8.7 8.0 96 14 12   100.22     LegendNANA
18:00 8.9 8.1 95 14 10   100.13     LegendNANA
19:00 8.9 8.2 96 15 10   100.11     LegendNANA
20:00 8.9 8.4 97 13 10   99.96     LegendNANA
21:00 8.9 8.4 97 16 7   99.93     LegendNANA
22:00 8.6 8.2 97 12 4   99.82     LegendNANA
23:00 7.8 7.4 97 12 3   99.76     LegendNANA

Notes on Data Quality.

Legend

  • E = Estimated
  • M = Missing
  • NA = Not Available
Date modified: